QPF
0.00 0.00 0.00 0.00 0.00 0.00 0.00 0.00 0.00 0.00 0.00 0.00 0.00 0.00 0.00 0.00 0.00 0.00 0.00 0.00 0.00 0.00 0.00 0.00 0.00 0.00 0.00 0.00 0.00 0.00 0.00 0.00 0.00 0.00 0.00 0.00 0.00 0.00 0.00 0.00 0.00 0.00 0.00 0.00
0.00 0.00 0.00 0.00 0.00 0.00 0.00 0.00 0.00 0.00 0.00 0.00 0.00 0.00 0.00 0.00 0.00 0.00 0.00 0.00 0.00 0.00 0.00 0.00 0.00 0.00 0.00 0.00 0.00 0.00 0.00 0.00 0.00 0.00 0.00 0.00 0.00 0.00 0.00 0.00 0.00 0.00 0.00 0.00
0.00 0.00 0.00 0.00 0.00 0.00 0.00 0.00 0.00 0.00 0.00 0.00 0.00 0.00 0.00 0.00 0.00 0.00 0.00 0.00 0.00 0.00 0.00 0.00 0.00 0.00 0.00 0.00 0.00 0.00 0.00 0.00 0.00 0.00 0.00 0.00 0.00 0.00 0.00 0.00 0.00 0.00 0.00 0.00
0.00 0.00 0.00 0.00 0.00 0.00 0.00 0.00 0.00 0.00 0.00 0.00 0.00 0.00 0.00 0.00 0.00 0.00 0.00 0.00 0.00 0.00 0.00 0.00 0.00 0.00 0.00 0.00 0.00 0.00 0.00 0.00 0.00 0.00 0.00 0.00 0.00 0.00 0.00 0.00 0.00 0.00 0.00 0.00
0.00 0.00 0.00 0.00 0.00 0.00 0.00 0.00 0.00 0.00 0.00 0.00 0.00 0.00 0.00 0.00 0.00 0.00 0.00 0.00 0.00 0.00 0.00 0.00 0.00 0.00 0.00 0.00 0.00 0.00 0.00 0.00 0.00 0.00 0.00 0.00 0.00 0.00 0.00 0.00 0.00 0.00 0.00 0.00
0.00 0.00 0.00 0.00 0.00 0.00 0.00 0.00 0.00 0.00 0.00 0.00 0.00 0.00 0.00 0.00 0.00 0.00 0.00 0.00 0.00 0.00 0.00 0.00 0.00 0.00 0.00 0.00 0.00 0.00 0.00 0.00 0.00 0.00 0.00 0.00 0.00 0.00 0.00 0.00 0.00 0.00 0.00 0.00
0.00 0.00 0.00 0.00 0.00 0.00 0.00 0.00 0.00 0.00 0.00 0.00 0.00 0.00 0.00 0.00 0.00 0.00 0.00 0.00 0.00 0.00 0.00 0.00 0.00 0.00 0.00 0.00 0.00 0.00 0.00 0.00 0.00 0.00 0.00 0.00 0.00 0.00 0.00 0.00 0.00 0.00 0.00 0.00
0.00 0.00 0.00 0.00 0.00 0.00 0.00 0.00 0.00 0.00 0.00 0.00 0.00 0.00 0.00 0.00 0.00 0.00 0.00 0.00 0.00 0.00 0.00 0.00 0.00 0.00 0.00 0.00 0.00 0.00 0.00 0.00 0.00 0.00 0.00 0.00 0.00 0.00 0.00 0.00 0.00 0.00 0.00 0.00
0.00 0.00 0.00 0.00 0.00 0.00 0.00 0.00 0.00 0.00 0.00 0.00 0.00 0.00 0.00 0.00 0.00 0.00 0.00 0.00 0.00 0.00 0.00 0.00 0.00 0.00 0.00 0.00 0.00 0.00 0.00 0.00 0.00 0.00 0.00 0.00 0.00 0.00 0.00 0.00 0.00 0.00 0.00 0.00
0.00 0.00 0.00 0.00 0.00 0.00 0.00 0.00 0.00 0.00 0.00 0.00 0.00 0.00 0.00 0.00 0.00 0.00 0.00 0.00 0.00 0.00 0.00 0.00 0.00 0.00 0.00 0.00 0.00 0.00 0.00 0.00 0.00 0.00 0.00 0.00 0.00 0.00 0.00 0.00 0.00 0.00 0.00 0.00
0.00 0.00 0.00 0.00 0.00 0.00 0.00 0.00 0.00 0.00 0.00 0.00 0.00 0.00 0.00 0.00 0.00 0.00 0.00 0.00 0.00 0.00 0.00 0.00 0.00 0.00 0.00 0.00 0.00 0.00 0.00 0.00 0.00 0.00 0.00 0.00 0.00 0.00 0.00 0.00 0.00 0.00 0.00 0.00
0.00 0.00 0.00 0.00 0.00 0.00 0.00 0.00 0.00 0.00 0.00 0.00 0.00 0.00 0.00 0.00 0.00 0.00 0.00 0.00 0.00 0.00 0.00 0.00 0.00 0.00 0.00 0.00 0.00 0.00 0.00 0.00 0.00 0.00 0.00 0.00 0.00 0.00 0.00 0.00 0.00 0.00 0.00 0.00
0.00 0.00 0.00 0.00 0.00 0.00 0.00 0.00 0.00 0.00 0.00 0.00 0.00 0.00 0.00 0.00 0.00 0.00 0.00 0.00 0.00 0.00 0.00 0.00 0.00 0.00 0.00 0.00 0.00 0.00 0.00 0.00 0.00 0.00 0.00 0.00 0.00 0.00 0.00 0.00 0.00 0.00 0.00 0.00
0.00 0.00 0.00 0.00 0.00 0.00 0.00 0.00 0.00 0.00 0.00 0.00 0.00 0.00 0.00 0.00 0.00 0.00 0.00 0.00 0.00 0.00 0.00 0.00 0.00 0.00 0.00 0.00 0.00 0.00 0.00 0.00 0.00 0.00 0.00 0.00 0.00 0.00 0.00 0.00 0.00 0.00 0.00 0.00
0.00 0.00 0.00 0.00 0.00 0.00 0.00 0.00 0.00 0.00 0.00 0.00 0.00 0.00 0.00 0.00 0.00 0.00 0.00 0.00 0.00 0.00 0.00 0.00 0.00 0.00 0.00 0.00 0.00 0.00 0.00 0.00 0.00 0.00 0.00 0.00 0.00 0.00 0.00 0.00 0.00 0.00 0.00 0.00
0.00 0.00 0.00 0.00 0.00 0.00 0.00 0.00 0.00 0.00 0.00 0.00 0.00 0.00 0.00 0.00 0.00 0.00 0.00 0.00 0.00 0.00 0.00 0.00 0.00 0.00 0.00 0.00 0.00 0.00 0.00 0.00 0.00 0.00 0.00 0.00 0.00 0.00 0.00 0.00 0.00 0.00 0.00 0.00
0.00 0.00 0.00 0.00 0.00 0.00 0.00 0.00 0.00 0.00 0.00 0.00 0.00 0.00 0.00 0.00 0.00 0.00 0.00 0.00 0.00 0.00 0.00 0.00 0.00 0.00 0.00 0.00 0.00 0.00 0.00 0.00 0.00 0.00 0.00 0.00 0.00 0.00 0.00 0.00 0.00 0.00 0.00 0.00
0.00 0.00 0.00 0.00 0.00 0.00 0.00 0.00 0.00 0.00 0.00 0.00 0.00 0.00 0.00 0.00 0.00 0.00 0.00 0.00 0.00 0.00 0.00 0.00 0.00 0.00 0.00 0.00 0.00 0.00 0.00 0.00 0.00 0.00 0.00 0.00 0.00 0.00 0.00 0.00 0.00 0.00 0.00 0.00
0.00 0.00 0.00 0.00 0.00 0.00 0.00 0.00 0.00 0.00 0.00 0.00 0.00 0.00 0.00 0.00 0.00 0.00 0.00 0.00 0.00 0.00 0.00 0.00 0.00 0.00 0.00 0.00 0.00 0.00 0.00 0.00 0.00 0.00 0.00 0.00 0.00 0.00 0.00 0.00 0.00 0.00 0.00 0.00
0.00 0.00 0.00 0.00 0.00 0.00 0.00 0.00 0.00 0.00 0.00 0.00 0.00 0.00 0.00 0.00 0.00 0.00 0.00 0.00 0.00 0.00 0.00 0.00 0.00 0.00 0.00 0.00 0.00 0.00 0.00 0.00 0.00 0.00 0.00 0.00 0.00 0.00 0.00 0.00 0.00 0.00 0.00 0.00
0.00 0.00 0.00 0.00 0.00 0.00 0.00 0.00 0.00 0.00 0.00 0.00 0.00 0.00 0.00 0.00 0.00 0.00 0.00 0.00 0.00 0.00 0.00 0.00 0.00 0.00 0.00 0.00 0.00 0.00 0.00 0.00 0.00 0.00 0.00 0.00 0.00 0.00 0.00 0.00 0.00 0.00 0.00 0.00
0.00 0.00 0.00 0.00 0.00 0.00 0.00 0.00 0.00 0.00 0.00 0.00 0.00 0.00 0.00 0.00 0.00 0.00 0.00 0.00 0.00 0.00 0.00 0.00 0.00 0.00 0.00 0.00 0.00 0.00 0.00 0.00 0.00 0.00 0.00 0.00 0.00 0.00 0.00 0.00 0.00 0.00 0.00 0.00
0.00 0.00 0.00 0.00 0.00 0.00 0.00 0.00 0.00 0.00 0.00 0.00 0.00 0.00 0.00 0.00 0.00 0.00 0.00 0.00 0.00 0.00 0.00 0.00 0.00 0.00 0.00 0.00 0.00 0.00 0.00 0.00 0.00 0.00 0.00 0.00 0.00 0.00 0.00 0.00 0.00 0.00 0.00 0.00
0.00 0.00 0.00 0.00 0.00 0.00 0.00 0.00 0.00 0.00 0.00 0.00 0.00 0.00 0.00 0.00 0.00 0.00 0.00 0.00 0.00 0.00 0.00 0.00 0.00 0.00 0.00 0.00 0.00 0.00 0.00 0.00 0.00 0.00 0.00 0.00 0.00 0.00 0.00 0.00 0.00 0.00 0.00 0.00
0.00 0.00 0.00 0.00 0.00 0.00 0.00 0.00 0.00 0.00 0.00 0.00 0.00 0.00 0.00 0.00 0.00 0.00 0.00 0.00 0.00 0.00 0.00 0.00 0.00 0.00 0.00 0.00 0.00 0.00 0.00 0.00 0.00 0.00 0.00 0.00 0.00 0.00 0.00 0.00 0.00 0.00 0.00 0.00
0.00 0.00 0.00 0.00 0.00 0.00 0.00 0.00 0.00 0.00 0.00 0.00 0.00 0.00 0.00 0.00 0.00 0.00 0.00 0.00 0.00 0.00 0.00 0.00 0.00 0.00 0.00 0.00 0.00 0.00 0.00 0.00 0.00 0.00 0.00 0.00 0.00 0.00 0.00 0.00 0.00 0.00 0.00 0.00
MSLP
1016.01 1016.60 1016.59 1016.46 1016.31 1016.12 1015.85 1015.53 1015.01 1014.09 1013.38 1013.25 1013.10 1013.06 1012.82 1012.90 1013.40 1013.75 1014.16 1014.17 1014.32 1014.27 1014.63 1015.04 1015.71 1016.24 1016.73 1017.13 1017.86 1018.59 1019.20 1019.84 1020.25 1021.06 1021.63 1022.03 1022.33 1022.63 1022.78 1022.75 1022.64 1022.72 1022.82 1022.98
1016.71 1016.66 1016.30 1016.09 1016.02 1016.05 1015.76 1015.40 1015.14 1014.41 1013.86 1013.80 1013.69 1013.40 1012.89 1012.92 1012.60 1012.84 1013.05 1013.59 1013.79 1014.16 1014.46 1014.66 1015.54 1015.98 1016.40 1016.66 1017.56 1018.28 1018.98 1019.85 1020.31 1020.57 1021.12 1021.61 1022.06 1022.62 1022.78 1022.90 1022.90 1022.86 1023.00 1023.24
1016.99 1016.54 1016.00 1015.90 1015.81 1015.67 1015.61 1015.50 1015.21 1015.08 1014.55 1014.38 1014.29 1014.07 1013.34 1012.82 1012.62 1012.66 1012.66 1012.98 1013.47 1013.63 1013.94 1014.55 1015.46 1016.03 1016.23 1016.02 1016.34 1017.43 1018.64 1019.43 1019.97 1020.67 1021.18 1021.83 1022.13 1022.70 1023.05 1023.14 1023.18 1023.18 1023.17 1023.40
1016.85 1016.46 1016.14 1015.89 1015.82 1015.83 1015.64 1015.35 1015.48 1015.50 1015.69 1015.57 1014.95 1014.80 1013.66 1012.94 1012.90 1012.83 1012.52 1012.55 1012.68 1013.05 1013.55 1014.03 1014.70 1015.61 1015.66 1016.09 1016.52 1017.13 1018.04 1019.20 1019.69 1020.38 1020.98 1021.50 1021.99 1022.60 1022.88 1023.03 1023.20 1023.33 1023.36 1023.54
1017.13 1016.66 1016.47 1016.15 1015.96 1015.95 1015.76 1015.66 1015.96 1016.02 1016.38 1016.32 1016.05 1015.97 1013.89 1013.27 1012.93 1012.51 1012.20 1012.05 1012.03 1012.17 1012.87 1013.23 1013.94 1014.90 1015.73 1016.49 1016.32 1017.21 1017.82 1019.37 1019.65 1020.24 1020.86 1021.42 1022.11 1022.45 1022.64 1023.00 1023.33 1023.56 1023.53 1023.63
1017.21 1016.70 1016.62 1016.33 1016.01 1015.91 1015.96 1016.21 1016.68 1017.24 1017.65 1017.65 1016.58 1016.26 1014.62 1013.45 1012.26 1012.05 1011.73 1011.54 1011.80 1012.21 1012.49 1013.00 1013.63 1014.59 1015.68 1016.73 1017.17 1016.66 1017.69 1019.33 1019.90 1020.37 1020.84 1021.30 1021.92 1022.57 1022.86 1023.15 1023.49 1023.75 1023.82 1023.89
1017.73 1017.04 1016.70 1016.59 1016.46 1016.15 1016.44 1017.32 1018.14 1018.60 1018.82 1018.30 1017.21 1016.78 1014.30 1012.84 1012.39 1012.40 1012.35 1012.03 1011.97 1012.28 1012.78 1013.28 1013.77 1014.70 1015.70 1016.55 1017.53 1017.24 1017.40 1019.41 1019.98 1020.48 1021.01 1021.33 1021.81 1022.39 1022.64 1022.98 1023.35 1023.78 1023.99 1023.96
1018.85 1017.70 1016.95 1016.80 1016.86 1016.97 1016.99 1017.54 1018.58 1019.02 1019.25 1018.57 1017.63 1016.16 1013.70 1012.72 1012.69 1012.78 1013.05 1013.00 1012.59 1012.70 1012.94 1013.60 1013.94 1014.78 1015.71 1016.69 1017.34 1017.66 1018.23 1019.26 1020.12 1020.72 1021.13 1021.34 1021.76 1022.40 1022.66 1022.92 1023.25 1023.69 1023.86 1023.94
1018.81 1017.91 1017.08 1016.99 1016.82 1017.10 1017.33 1017.65 1017.85 1018.69 1019.32 1019.00 1017.41 1015.64 1013.54 1012.91 1012.96 1013.14 1013.40 1013.49 1013.44 1013.51 1013.67 1013.97 1014.48 1015.16 1016.00 1016.83 1017.49 1017.92 1018.53 1019.55 1020.28 1020.74 1021.14 1021.58 1021.98 1022.64 1022.78 1023.09 1023.41 1023.70 1023.86 1023.90
1018.60 1018.52 1017.46 1017.14 1017.14 1017.15 1017.22 1017.88 1018.20 1018.76 1019.18 1018.86 1017.34 1016.31 1014.32 1013.42 1013.12 1013.45 1013.82 1014.05 1014.25 1014.42 1014.66 1015.01 1015.38 1015.89 1016.59 1017.20 1017.84 1018.38 1018.94 1019.59 1020.24 1020.83 1021.35 1021.74 1022.47 1022.81 1023.03 1023.34 1023.74 1023.97 1024.13 1024.19
1018.67 1019.05 1018.14 1017.77 1017.42 1017.26 1017.56 1017.57 1018.24 1018.64 1018.73 1018.56 1017.94 1015.63 1014.00 1013.70 1013.62 1013.81 1014.08 1014.49 1014.90 1015.15 1015.52 1015.89 1016.32 1016.72 1017.20 1017.72 1018.20 1018.73 1019.28 1019.86 1020.57 1021.06 1021.60 1022.17 1022.88 1023.12 1023.39 1023.72 1024.13 1024.31 1024.43 1024.62
1018.94 1019.25 1019.05 1017.85 1017.44 1017.30 1017.26 1017.41 1017.53 1018.74 1018.76 1018.54 1017.82 1015.13 1013.58 1013.64 1013.75 1013.89 1014.41 1014.90 1015.38 1015.74 1016.19 1016.63 1016.94 1017.27 1017.76 1018.20 1018.61 1019.04 1019.59 1020.16 1020.82 1021.42 1022.01 1022.73 1023.15 1023.52 1023.89 1024.23 1024.46 1024.58 1024.87 1025.07
1018.84 1019.39 1019.36 1018.06 1017.99 1017.63 1017.63 1017.56 1017.75 1017.95 1018.11 1018.09 1017.64 1014.89 1013.73 1013.59 1013.76 1014.22 1014.88 1015.45 1015.86 1016.24 1016.58 1016.96 1017.33 1017.65 1018.10 1018.64 1019.08 1019.56 1020.07 1020.69 1021.26 1021.79 1022.46 1023.20 1023.68 1023.96 1024.31 1024.58 1024.81 1024.98 1025.18 1025.41
1019.15 1019.40 1019.66 1019.29 1018.33 1017.94 1017.90 1017.62 1017.69 1018.16 1018.46 1017.31 1015.91 1014.71 1013.64 1013.68 1014.14 1014.61 1015.21 1015.82 1016.33 1016.80 1017.02 1017.35 1017.89 1018.34 1018.78 1019.24 1019.60 1020.09 1020.66 1021.08 1021.71 1022.33 1022.98 1023.59 1023.99 1024.28 1024.58 1024.86 1025.10 1025.28 1025.44 1025.63
1019.58 1019.74 1019.39 1018.64 1018.23 1018.07 1017.49 1017.18 1017.34 1017.77 1017.20 1017.12 1015.27 1014.78 1013.73 1013.72 1014.04 1014.60 1015.43 1016.27 1016.95 1017.42 1017.81 1018.08 1018.54 1019.09 1019.40 1019.84 1020.32 1020.73 1021.23 1021.75 1022.15 1022.77 1023.37 1023.95 1024.28 1024.58 1024.90 1025.16 1025.38 1025.55 1025.65 1025.75
1019.81 1019.86 1019.64 1018.68 1017.45 1017.28 1016.91 1016.05 1016.13 1016.45 1016.41 1015.83 1015.39 1013.97 1013.32 1013.03 1013.66 1014.46 1015.00 1015.87 1016.70 1017.36 1017.96 1018.46 1019.01 1019.47 1019.90 1020.27 1020.74 1021.21 1021.71 1022.20 1022.48 1023.14 1023.80 1024.20 1024.53 1024.85 1025.18 1025.43 1025.64 1025.81 1025.94 1026.01
1019.83 1020.04 1020.07 1018.98 1017.70 1016.94 1015.96 1014.42 1014.84 1015.01 1014.88 1014.60 1014.31 1012.79 1012.81 1013.09 1013.51 1013.87 1014.64 1015.36 1016.07 1016.83 1017.69 1018.39 1018.97 1019.50 1020.00 1020.46 1020.82 1021.50 1022.03 1022.48 1022.98 1023.47 1024.02 1024.40 1024.71 1025.09 1025.43 1025.66 1025.81 1025.95 1026.05 1026.13
1019.94 1020.18 1020.18 1019.35 1018.20 1016.72 1014.20 1013.49 1013.70 1014.02 1013.73 1013.64 1013.28 1013.00 1012.99 1013.12 1013.26 1013.50 1013.89 1014.79 1015.75 1016.49 1017.25 1018.13 1018.84 1019.56 1020.20 1020.61 1021.16 1021.70 1022.23 1022.71 1023.18 1023.73 1024.16 1024.48 1024.82 1025.16 1025.44 1025.66 1025.83 1025.92 1026.01 1026.07
1019.83 1020.06 1020.21 1019.82 1018.62 1016.10 1013.57 1013.34 1013.27 1013.61 1013.31 1013.14 1013.34 1013.17 1013.23 1013.48 1013.69 1013.66 1013.91 1014.29 1014.83 1015.54 1016.51 1017.51 1018.40 1019.21 1020.06 1020.64 1021.21 1021.76 1022.41 1022.87 1023.38 1023.94 1024.36 1024.72 1025.00 1025.34 1025.58 1025.78 1025.89 1025.90 1025.93 1026.01
1019.78 1020.07 1020.35 1020.13 1018.92 1016.36 1013.42 1013.02 1013.01 1013.24 1013.11 1012.92 1013.20 1013.32 1013.55 1013.83 1014.26 1013.87 1013.98 1014.37 1015.04 1015.69 1016.44 1017.39 1018.43 1019.17 1019.90 1020.58 1021.05 1021.75 1022.53 1023.11 1023.74 1024.21 1024.61 1024.92 1025.18 1025.42 1025.69 1025.85 1025.96 1026.07 1026.18 1026.17
1019.63 1019.95 1019.90 1019.38 1018.47 1015.83 1013.27 1013.05 1013.24 1013.52 1013.24 1012.50 1012.80 1013.15 1013.79 1014.29 1014.13 1014.15 1014.19 1014.65 1015.09 1015.68 1016.52 1017.54 1018.40 1019.13 1019.85 1020.56 1021.17 1022.06 1022.77 1023.45 1023.94 1024.37 1024.78 1025.08 1025.34 1025.54 1025.72 1025.94 1026.04 1026.07 1026.09 1026.12
1017.38 1018.19 1018.31 1018.06 1017.30 1015.26 1012.91 1013.43 1013.27 1012.22 1012.40 1012.51 1012.88 1013.02 1013.45 1013.55 1013.92 1014.38 1014.65 1015.02 1015.47 1016.07 1016.93 1017.64 1018.64 1019.69 1020.41 1021.03 1021.61 1022.52 1023.15 1023.64 1024.05 1024.50 1024.94 1025.24 1025.47 1025.69 1025.82 1025.93 1026.00 1026.06 1026.14 1026.21
1015.71 1014.62 1014.92 1015.03 1013.18 1011.90 1012.12 1011.62 1011.65 1011.54 1011.77 1012.18 1012.58 1012.83 1013.07 1013.55 1014.05 1014.50 1014.98 1015.45 1015.93 1016.40 1017.19 1017.99 1018.80 1019.99 1020.70 1021.16 1021.66 1022.52 1023.15 1023.58 1024.08 1024.56 1025.08 1025.31 1025.48 1025.64 1025.78 1025.92 1026.00 1026.04 1025.97 1025.79
1013.92 1013.38 1013.30 1013.07 1011.36 1011.22 1011.16 1011.10 1011.63 1011.68 1011.54 1011.59 1011.94 1012.51 1013.06 1013.50 1014.12 1014.92 1015.45 1016.01 1016.42 1016.87 1017.43 1018.13 1019.09 1020.13 1021.07 1021.54 1021.99 1022.56 1023.19 1023.71 1024.14 1024.74 1025.24 1025.51 1025.81 1025.86 1025.84 1025.65 1025.46 1025.54 1025.59 1025.38
1012.43 1012.54 1012.03 1010.87 1010.00 1010.52 1010.46 1010.62 1010.74 1010.88 1011.24 1011.56 1011.81 1012.20 1012.57 1013.26 1014.07 1014.64 1015.41 1016.06 1016.50 1016.96 1017.64 1018.28 1019.16 1020.14 1021.03 1021.77 1022.27 1022.96 1023.26 1023.72 1024.27 1024.82 1025.21 1025.46 1025.60 1025.65 1025.52 1025.25 1025.16 1024.96 1024.79 1024.67
1011.11 1010.70 1010.66 1008.98 1008.59 1009.58 1009.54 1009.45 1009.70 1010.45 1010.77 1010.85 1011.59 1012.18 1012.47 1012.88 1013.62 1014.43 1015.20 1015.81 1016.37 1017.03 1017.71 1018.61 1019.53 1020.31 1021.24 1021.83 1022.60 1023.10 1023.41 1023.78 1024.30 1024.78 1024.97 1025.02 1025.32 1025.49 1025.36 1025.26 1024.95 1024.57 1024.22 1023.82
Thickness
5537 5523 5528 5539 5546 5552 5556 5562 5569 5587 5605 5610 5616 5621 5636 5642 5645 5648 5651 5661 5668 5677 5680 5679 5679 5679 5678 5677 5673 5667 5663 5659 5656 5650 5646 5642 5640 5636 5633 5632 5631 5629 5625 5622
5528 5528 5540 5543 5546 5547 5553 5561 5565 5580 5594 5601 5605 5612 5629 5632 5646 5652 5659 5658 5664 5671 5675 5678 5675 5674 5674 5673 5669 5662 5657 5653 5650 5647 5643 5639 5635 5630 5627 5624 5622 5620 5617 5613
5528 5535 5542 5544 5547 5550 5552 5554 5564 5570 5583 5591 5594 5596 5615 5631 5638 5645 5655 5661 5662 5667 5671 5672 5669 5666 5667 5671 5669 5662 5655 5649 5646 5640 5634 5630 5628 5622 5618 5615 5613 5610 5608 5605
5535 5540 5540 5543 5543 5543 5546 5559 5560 5564 5565 5564 5589 5570 5603 5620 5630 5635 5649 5655 5662 5665 5668 5670 5669 5666 5667 5666 5661 5658 5651 5644 5641 5633 5630 5626 5622 5616 5612 5609 5605 5602 5599 5596
5533 5537 5536 5539 5542 5542 5544 5552 5554 5564 5558 5564 5573 5558 5597 5613 5619 5634 5645 5657 5665 5671 5670 5673 5671 5665 5659 5653 5657 5649 5645 5635 5633 5630 5625 5619 5613 5608 5604 5600 5595 5592 5590 5586
5536 5542 5539 5540 5543 5545 5546 5549 5544 5537 5538 5529 5569 5559 5580 5605 5627 5641 5649 5658 5662 5662 5665 5667 5665 5660 5654 5645 5642 5647 5639 5627 5624 5621 5617 5612 5606 5598 5594 5590 5585 5580 5577 5575
5529 5540 5541 5540 5538 5545 5541 5527 5504 5520 5509 5537 5553 5539 5585 5618 5628 5632 5638 5647 5655 5655 5655 5655 5657 5653 5645 5641 5634 5635 5633 5618 5614 5611 5606 5602 5596 5590 5587 5582 5577 5570 5566 5564
5508 5514 5540 5539 5537 5535 5540 5533 5506 5530 5521 5535 5551 5552 5584 5615 5616 5618 5621 5625 5641 5646 5648 5649 5651 5647 5640 5632 5627 5626 5620 5612 5604 5599 5595 5592 5587 5579 5576 5573 5567 5560 5556 5553
5524 5530 5542 5539 5540 5537 5538 5532 5538 5526 5521 5526 5540 5566 5592 5605 5610 5616 5617 5619 5625 5632 5636 5639 5637 5634 5628 5622 5617 5613 5609 5600 5593 5589 5584 5580 5575 5567 5565 5560 5555 5550 5545 5541
5535 5523 5541 5542 5538 5537 5537 5532 5529 5506 5534 5535 5538 5549 5568 5597 5602 5609 5613 5612 5613 5616 5619 5620 5622 5619 5614 5609 5604 5600 5596 5590 5584 5578 5573 5569 5559 5555 5552 5547 5541 5536 5532 5528
5536 5526 5534 5538 5535 5536 5529 5531 5528 5523 5522 5531 5531 5546 5571 5587 5597 5598 5603 5606 5603 5604 5605 5604 5604 5603 5600 5596 5593 5589 5584 5579 5571 5566 5560 5553 5545 5542 5538 5533 5527 5522 5518 5512
5534 5519 5513 5535 5539 5538 5537 5535 5530 5515 5533 5513 5518 5545 5581 5583 5580 5588 5589 5592 5590 5592 5591 5590 5590 5590 5587 5584 5581 5577 5571 5566 5559 5552 5546 5537 5532 5528 5522 5517 5512 5508 5502 5496
5537 5522 5501 5535 5534 5536 5533 5532 5531 5519 5511 5522 5526 5553 5571 5573 5579 5580 5575 5575 5576 5577 5577 5576 5577 5578 5575 5570 5566 5561 5556 5550 5544 5538 5531 5523 5517 5512 5507 5502 5497 5492 5486 5480
5532 5520 5524 5516 5534 5533 5532 5533 5530 5524 5493 5528 5533 5556 5571 5576 5574 5569 5566 5564 5563 5564 5567 5566 5563 5560 5556 5554 5550 5546 5539 5535 5528 5522 5515 5508 5502 5498 5492 5486 5480 5474 5468 5462
5526 5523 5510 5518 5516 5515 5524 5528 5522 5508 5528 5532 5560 5549 5568 5569 5564 5561 5554 5551 5550 5550 5551 5551 5546 5542 5540 5538 5533 5530 5524 5519 5513 5507 5500 5493 5487 5482 5476 5469 5463 5458 5452 5446
5516 5518 5522 5527 5535 5521 5523 5527 5521 5518 5528 5525 5532 5552 5560 5568 5558 5550 5552 5549 5546 5543 5540 5538 5534 5531 5527 5524 5520 5516 5509 5504 5500 5493 5485 5478 5472 5466 5459 5453 5447 5441 5434 5428
5516 5507 5512 5522 5531 5529 5538 5541 5538 5538 5532 5545 5541 5570 5568 5568 5562 5559 5551 5551 5548 5540 5535 5530 5526 5522 5517 5513 5510 5502 5496 5491 5484 5477 5470 5463 5457 5449 5442 5436 5429 5423 5417 5411
5509 5505 5502 5504 5514 5522 5556 5559 5554 5546 5550 5541 5546 5552 5561 5559 5559 5556 5551 5546 5539 5536 5530 5522 5516 5509 5504 5499 5494 5488 5482 5476 5469 5462 5455 5448 5441 5434 5427 5420 5414 5408 5402 5396
5506 5503 5497 5503 5502 5533 5557 5555 5551 5550 5554 5551 5547 5544 5550 5546 5549 5553 5544 5544 5543 5537 5528 5519 5510 5502 5492 5487 5480 5475 5468 5462 5454 5446 5438 5431 5425 5418 5411 5405 5399 5393 5387 5380
5493 5489 5493 5480 5497 5526 5558 5552 5546 5546 5537 5548 5542 5542 5539 5541 5545 5544 5537 5534 5529 5524 5517 5507 5498 5492 5485 5477 5472 5463 5453 5445 5436 5429 5422 5414 5408 5401 5394 5388 5382 5375 5368 5362
5490 5478 5481 5478 5475 5508 5540 5541 5534 5536 5541 5544 5541 5535 5526 5528 5534 5530 5526 5523 5519 5513 5504 5494 5486 5479 5472 5462 5455 5445 5436 5428 5420 5412 5405 5398 5391 5385 5378 5371 5365 5359 5354 5347
5505 5485 5472 5466 5472 5497 5531 5527 5530 5539 5531 5537 5532 5529 5523 5522 5521 5516 5512 5507 5503 5496 5488 5480 5469 5459 5450 5443 5437 5426 5419 5411 5404 5396 5388 5381 5375 5369 5362 5356 5350 5345 5339 5333
5503 5526 5521 5506 5520 5541 5521 5534 5529 5526 5531 5525 5524 5522 5519 5514 5508 5503 5498 5493 5488 5483 5473 5465 5456 5443 5435 5429 5423 5413 5404 5397 5390 5382 5373 5367 5361 5354 5348 5342 5336 5330 5323 5318
5506 5510 5509 5513 5535 5530 5524 5519 5514 5511 5515 5519 5516 5512 5504 5501 5493 5485 5478 5472 5468 5463 5458 5451 5441 5430 5420 5414 5408 5399 5390 5381 5375 5366 5357 5350 5342 5337 5332 5329 5325 5318 5308 5302
5507 5496 5503 5513 5536 5516 5516 5512 5513 5508 5504 5506 5502 5498 5496 5489 5479 5473 5464 5458 5454 5449 5442 5436 5427 5416 5406 5397 5389 5379 5373 5366 5358 5349 5341 5335 5329 5323 5319 5316 5308 5303 5295 5289
5501 5514 5502 5518 5531 5517 5518 5518 5510 5501 5499 5495 5487 5483 5480 5477 5468 5460 5452 5447 5442 5435 5427 5418 5408 5399 5389 5380 5370 5363 5357 5350 5342 5334 5328 5322 5316 5309 5305 5299 5293 5287 5283 5278